Погода в Мегре

Россия / Вологодская область     60°51′58″N   35°59′48″E
темп.,
°C
ветер,
м/с
пор.,
м/с
влажн.,
%
обл.,
%
осадки,
мм/ч
давл.,
гПа
погр.,
м
13 мая, чт
чт1300:00+14ююв38812 0.0 1021123
03:00+13ююв25825 0.0 102071
06:00+15юв28751 0.0 1019197
09:00+21юв48545 0.0 1018555
12:00+24юв594278 0.0 10172407
15:00+23юв574895 0.0 10161684
18:00+22ююв46465 0.0 10151805
21:00+15юв22745 0.0 101413
14 мая, пт
пт1400:00+13всв118781 0.2 101213
03:00+14ююв3896100 5.3 1011544
06:00+13ю3891100 0.1 1012489
09:00+15ююз47650 0.1 10131074
12:00+18ююз47425 0.0 10141741
15:00+20ююз473833 0.0 10142374
18:00+18ююз3651100 0.0 1013362
21:00+14ююв246950 0.0 101464
15 мая, сб
сб1500:00+11юв2480100 0.0 101476
03:00+10юв268799 0.0 1012116
06:00+13вюв3107882 0.0 1011364
09:00+17вюв467385 0.0 1009895
12:00+18юв467273 0.1 1008916
15:00+19ююв466882 0.1 10061014
18:00+21ююв366152 0.1 10041197
21:00+15ююз229186 1.7 100337
16 мая, вс
вс1600:00+13юз2794100 1.8 1003205
03:00+12юз2897100 1.8 1003245
06:00+12зюз4109093 0.0 1005641
09:00+12зюз41090100 0.0 1007569
12:00+15зюз5975100 0.0 1009901
15:00+19з564533 0.0 10101556
18:00+17з3554100 0.0 10111314
21:00+12з227813 0.0 101312
17 мая, пн
пн1700:00+9юз11875 0.0 101411
03:00+9ю11875 0.0 101510
06:00+11ю127638 0.0 101676
09:00+17ююв1253100 0.0 1016540
12:00+20ююв34450 0.0 10151426
15:00+23ююв2539100 0.0 10142261
18:00+21ююв3754100 0.0 1013688
21:00+15юв2878100 0.0 1013181